Weather reports worldwide

Advertisment
Quimper, France (7201): temperature & dewpoint: 18.06.2018 11:00:00 - 24.06.2018 11:00:00 (CEST)Quimper, France (7201): temperature 5cm: 18.06.2018 11:00:00 - 24.06.2018 11:00:00 (CEST)Quimper, France (7201): temperature -20cm: 18.06.2018 11:00:00 - 24.06.2018 11:00:00 (CEST)Quimper, France (7201): wind speed & gusts: 18.06.2018 11:00:00 - 24.06.2018 11:00:00 (CEST)Quimper, France (7201): wind direction: 18.06.2018 11:00:00 - 24.06.2018 11:00:00 (CEST)Quimper, France (7201): reduced air pressure: 18.06.2018 11:00:00 - 24.06.2018 11:00:00 (CEST)Quimper, France (7201): visibility: 18.06.2018 11:00:00 - 24.06.2018 11:00:00 (CEST)Quimper, France (7201): sunshine duration: 18.06.2018 11:00:00 - 24.06.2018 11:00:00 (CEST)Quimper, France (7201): precipitation: 18.06.2018 11:00:00 - 24.06.2018 11:00:00 (CEST)
Date & Time tt [°C] td [°C] tt 5cm [°C] tt -20cm [°C] ff [km/h] ff [kn] fx [km/h] fx [kn] dd ppp [hPa] vv [km] sd [min] rr [mm]
24.06.2018 11:00:00 - - - - - - - - - - - - -
24.06.2018 10:00:00 20,0 10,1 19,9 18,4 11 6 19 10 E 1024,3 60 60 0,0
24.06.2018 09:00:00 17,2 10,3 17,8 18,6 11 6 20 11 E 1024,3 48 60 0,0
24.06.2018 08:00:00 15,1 9,7 12,2 18,7 9 5 14 8 ENE 1024,2 45 60 0,0
24.06.2018 07:00:00 11,7 8,7 9,4 18,8 6 4 11 6 NNE 1024,0 46 10 0,0
24.06.2018 06:00:00 11,8 8,1 9,9 19,0 6 4 15 8 NNE 1024,0 56 0 0,0
24.06.2018 05:00:00 13,0 8,1 11,0 19,1 8 5 16 9 NE 1024,2 60 0 0,0
24.06.2018 04:00:00 13,3 7,7 11,6 19,2 8 4 19 10 NE 1024,4 60 0 0,0
24.06.2018 03:00:00 14,1 7,6 12,8 19,3 10 5 21 11 ENE 1024,8 60 0 0,0
24.06.2018 02:00:00 14,5 7,5 13,5 19,5 13 7 23 12 ENE 1024,9 60 0 0,0
24.06.2018 01:00:00 15,1 7,6 13,9 19,5 13 7 25 14 ENE 1025,2 60 0 0,0
24.06.2018 00:00:00 15,8 7,5 14,8 19,6 13 7 25 13 NE 1025,3 60 0 0,0
23.06.2018 23:00:00 17,2 7,3 16,0 19,6 12 6 28 15 NE 1025,4 60 0 0,0
23.06.2018 22:00:00 19,3 7,7 18,7 19,5 16 9 32 17 ENE 1025,0 60 52 0,0
23.06.2018 21:00:00 21,6 7,8 22,8 19,4 16 8 26 14 NE 1024,6 58 60 0,0
23.06.2018 20:00:00 23,1 8,4 25,2 19,2 13 7 25 13 NNE 1024,4 60 60 0,0
23.06.2018 19:00:00 23,9 7,9 24,2 19,0 11 6 24 13 ENE 1024,6 57 49 0,0
23.06.2018 18:00:00 23,7 7,3 24,8 18,8 10 5 26 14 E 1025,0 60 53 0,0
23.06.2018 17:00:00 24,2 6,9 27,6 18,6 13 7 27 15 ESE 1025,4 53 60 0,0
23.06.2018 16:00:00 23,9 7,1 27,1 18,3 16 9 34 18 NE 1026,0 44 60 0,0
23.06.2018 15:00:00 23,7 8,1 26,6 18,1 16 9 31 17 NE 1026,7 60 60 0,0
23.06.2018 14:00:00 22,7 9,8 25,4 18,0 14 7 26 14 E 1027,3 59 60 0,0
23.06.2018 13:00:00 21,9 8,4 24,2 18,0 9 5 24 13 E 1028,0 60 60 0,0
23.06.2018 12:00:00 20,7 9,9 22,5 18,0 11 6 23 12 ESE 1028,2 60 60 0,0
23.06.2018 11:00:00 19,3 8,9 20,4 18,0 13 7 25 13 E 1028,5 60 60 0,0
23.06.2018 10:00:00 17,9 8,7 18,6 18,1 13 7 22 12 ESE 1028,7 20 60 0,0
23.06.2018 09:00:00 16,0 9,4 16,7 18,3 10 6 20 11 E 1029,1 60 60 0,0
23.06.2018 08:00:00 13,8 8,6 12,5 18,4 10 6 22 12 NE 1028,9 35 60 0,0
23.06.2018 07:00:00 11,3 8,3 8,9 18,6 10 5 16 9 NE 1028,8 39 15 0,0
23.06.2018 06:00:00 10,5 7,9 8,7 18,7 10 5 14 8 NNE 1028,6 41 0 0,0
23.06.2018 05:00:00 10,5 7,4 8,9 18,9 10 5 16 9 NNE 1028,5 48 0 0,0
23.06.2018 04:00:00 10,8 6,7 9,0 19,0 8 5 16 9 NNE 1028,6 57 0 0,0
23.06.2018 03:00:00 11,9 6,8 10,5 19,1 12 6 21 11 NE 1028,7 60 0 0,0
23.06.2018 02:00:00 11,7 7,0 10,5 19,2 11 6 24 13 NE 1028,9 59 0 0,0
23.06.2018 01:00:00 12,9 7,8 11,5 19,3 13 7 22 12 NE 1029,0 60 0 0,0
23.06.2018 00:00:00 13,6 8,2 12,3 19,3 11 6 20 11 NE 1028,9 60 0 0,0
22.06.2018 23:00:00 14,2 8,8 12,9 19,3 9 5 20 11 NNE 1028,8 53 0 0,0
22.06.2018 22:00:00 16,7 9,1 16,5 19,3 11 6 31 17 NNE 1028,0 60 51 0,0
22.06.2018 21:00:00 18,6 9,1 20,5 19,2 18 10 30 16 NNE 1027,7 42 60 0,0
22.06.2018 20:00:00 20,2 8,8 23,2 19,0 17 9 34 18 NE 1027,9 41 60 0,0
22.06.2018 19:00:00 20,9 8,5 24,6 18,8 18 10 36 19 NE 1027,9 59 60 0,0
22.06.2018 18:00:00 21,8 8,3 25,2 18,6 13 7 36 19 NE 1028,2 55 60 0,0
22.06.2018 17:00:00 21,7 8,9 24,8 18,4 18 10 36 19 NNE 1028,3 39 58 0,0
22.06.2018 16:00:00 21,6 8,8 23,3 18,2 19 10 32 17 ENE 1028,7 23 58 0,0
22.06.2018 15:00:00 21,0 7,9 24,4 18,1 15 8 39 21 NNE 1029,1 53 60 0,0
22.06.2018 14:00:00 20,4 7,4 23,7 18,0 16 9 35 19 NE 1029,4 55 60 0,0
22.06.2018 13:00:00 19,6 7,7 22,8 18,0 19 10 36 19 ENE 1029,8 60 60 0,0
22.06.2018 12:00:00 19,0 7,1 21,1 18,0 21 11 37 20 E 1029,9 60 60 0,0
22.06.2018 11:00:00 18,1 7,2 19,6 18,1 18 10 29 16 E 1030,3 60 60 0,0
22.06.2018 10:00:00 16,5 7,4 17,0 18,2 16 9 27 15 E 1030,5 60 60 0,0
22.06.2018 09:00:00 14,6 8,3 15,3 18,4 14 7 23 12 ENE 1030,5 55 60 0,0
22.06.2018 08:00:00 12,6 8,3 10,8 18,5 11 6 19 10 NE 1030,4 35 60 0,0
22.06.2018 07:00:00 9,9 7,5 8,0 18,7 13 7 20 11 NNE 1030,4 32 15 0,0
22.06.2018 06:00:00 9,4 6,8 8,2 18,9 9 5 25 14 NNE 1030,1 41 0 0,0
22.06.2018 05:00:00 9,6 6,9 8,5 19,0 13 7 20 11 NE 1029,8 48 0 0,0
22.06.2018 04:00:00 9,6 6,3 8,2 19,2 12 7 22 12 NNE 1029,7 60 0 0,0
22.06.2018 03:00:00 9,7 6,0 8,6 19,4 9 5 22 12 NE 1029,7 60 0 0,0
22.06.2018 02:00:00 10,2 6,0 8,7 19,5 9 5 19 10 NNE 1029,5 60 0 0,0
22.06.2018 01:00:00 10,9 6,2 9,9 19,7 14 7 29 16 NNE 1029,3 60 0 0,0
22.06.2018 00:00:00 11,7 5,8 10,7 19,8 17 9 27 15 NNE 1029,0 60 0 0,0
21.06.2018 23:00:00 12,0 4,5 10,8 19,8 12 6 30 16 NNE 1028,7 60 0 0,0
21.06.2018 22:00:00 13,6 3,6 13,4 19,8 18 10 30 16 NE 1028,0 60 51 0,0
21.06.2018 21:00:00 15,1 4,7 15,6 19,8 22 12 40 22 NE 1027,3 56 58 0,0
21.06.2018 20:00:00 15,9 7,1 17,0 19,7 23 12 42 23 NNE 1027,1 57 48 0,0
21.06.2018 19:00:00 17,6 7,9 21,4 19,6 22 12 41 22 NNE 1026,7 20 60 0,0
21.06.2018 18:00:00 18,5 7,9 22,9 19,4 21 11 40 22 NNE 1026,7 49 60 0,0
21.06.2018 17:00:00 19,3 9,2 23,0 19,3 20 11 40 21 NNE 1026,5 54 60 0,0
21.06.2018 16:00:00 19,3 7,4 23,4 19,1 23 12 40 22 NE 1026,4 54 60 0,0
21.06.2018 15:00:00 19,6 7,7 24,3 19,1 23 12 42 23 NNE 1026,2 49 60 0,0
21.06.2018 14:00:00 19,6 7,3 23,3 19,0 26 14 47 25 NE 1025,8 57 60 0,0
21.06.2018 13:00:00 19,0 7,7 22,2 19,1 26 14 46 25 NE 1025,4 52 60 0,0
21.06.2018 12:00:00 18,1 8,1 21,4 19,1 29 15 52 28 NNE 1025,3 51 60 0,0
21.06.2018 11:00:00 17,2 8,6 19,3 19,2 30 16 45 24 NE 1025,3 52 60 0,0
21.06.2018 10:00:00 16,4 10,0 17,3 19,3 24 13 44 24 NE 1025,1 60 60 0,0
21.06.2018 09:00:00 14,7 9,1 15,9 19,5 24 13 51 27 NE 1025,0 60 60 0,0
21.06.2018 08:00:00 13,8 8,2 13,8 19,6 21 11 42 23 NNE 1024,8 60 60 0,0
21.06.2018 07:00:00 13,3 9,4 13,1 19,7 19 10 41 22 NNE 1024,3 48 15 0,0
21.06.2018 06:00:00 14,4 11,2 14,0 19,9 20 11 42 23 NNE 1023,5 57 0 0,0
21.06.2018 05:00:00 14,6 12,1 14,4 20,0 21 11 42 23 N 1023,2 60 0 0,0
21.06.2018 04:00:00 14,5 13,0 14,5 20,0 20 11 38 20 N 1023,3 52 0 0,0
21.06.2018 03:00:00 15,1 13,6 15,1 20,2 19 10 31 17 NNE 1023,3 60 0 0,0
21.06.2018 02:00:00 15,3 14,0 15,1 20,2 22 12 36 19 N 1023,5 57 0 0,0
21.06.2018 01:00:00 15,0 13,9 14,8 20,3 16 9 39 21 NNE 1023,6 54 0 0,0
21.06.2018 00:00:00 16,0 14,5 15,4 20,3 20 11 31 17 N 1023,2 24 0 0,0
20.06.2018 23:00:00 17,8 14,7 16,9 20,3 12 6 26 14 N 1022,8 60 0 0,0
20.06.2018 22:00:00 20,1 14,9 20,1 20,2 13 7 21 11 NNW 1021,8 60 51 0,0
20.06.2018 21:00:00 22,4 15,3 24,0 20,1 13 7 26 14 N 1021,3 54 60 0,0
20.06.2018 20:00:00 24,2 16,5 27,1 19,9 18 10 33 18 NNW 1021,0 33 60 0,0
20.06.2018 19:00:00 25,7 16,8 28,5 19,6 24 13 35 19 NNW 1020,8 60 60 0,0
20.06.2018 18:00:00 26,4 17,2 29,2 19,3 21 12 33 18 NNW 1020,7 52 60 0,0
20.06.2018 17:00:00 26,1 17,2 29,8 19,0 23 12 32 17 NNW 1020,8 48 60 0,0
20.06.2018 16:00:00 26,5 18,1 30,8 18,7 16 9 25 13 NNW 1021,0 44 58 0,0
20.06.2018 15:00:00 26,8 15,8 30,8 18,4 8 4 25 14 N 1021,4 60 60 0,0
20.06.2018 14:00:00 25,6 16,7 29,0 18,2 11 6 19 10 N 1021,8 60 60 0,0
20.06.2018 13:00:00 24,6 17,1 27,6 18,1 8 5 19 10 NNE 1022,2 60 60 0,0
20.06.2018 12:00:00 24,0 18,0 26,7 18,0 7 4 14 7 ENE 1022,2 55 60 0,0
20.06.2018 11:00:00 22,1 17,2 26,9 18,0 5 3 14 8 NE 1022,3 16 60 0,0
20.06.2018 10:00:00 20,1 16,9 21,9 18,1 6 3 10 5 NNE 1022,8 53 60 0,0
20.06.2018 09:00:00 17,7 17,2 20,4 18,1 7 4 10 6 ENE 1022,9 27 60 0,0
20.06.2018 08:00:00 15,5 15,3 14,0 18,2 6 3 11 6 NE 1023,0 13 60 0,0
20.06.2018 07:00:00 14,0 13,8 13,7 18,2 6 3 11 6 NE 1022,9 0,3 12 0,0
20.06.2018 06:00:00 14,4 14,2 14,2 18,4 6 4 10 5 NE 1022,8 0,1 0 0,0
20.06.2018 05:00:00 14,8 14,5 14,7 18,4 8 4 13 7 NE 1022,9 0,1 0 0,2
20.06.2018 04:00:00 15,1 14,8 14,7 18,5 8 5 14 8 NE 1023,1 0,2 0 0,0
20.06.2018 03:00:00 15,0 14,5 14,0 18,6 9 5 14 8 NNE 1023,3 1,5 0 0,0
20.06.2018 02:00:00 15,3 14,7 13,9 18,7 11 6 18 10 NNE 1023,6 2,9 0 0,0
20.06.2018 01:00:00 15,2 14,2 13,4 18,7 7 4 14 7 N 1023,9 20 0 0,0
20.06.2018 00:00:00 15,4 13,9 14,2 18,7 8 4 17 9 N 1024,1 20 0 0,0
19.06.2018 23:00:00 15,6 13,6 14,2 18,6 8 4 16 8 NNW 1024,1 38 0 0,0
19.06.2018 22:00:00 17,5 14,4 17,5 18,5 9 5 16 9 N 1023,8 43 51 0,0
19.06.2018 21:00:00 20,1 15,5 22,2 18,3 9 5 14 7 N 1023,8 52 60 0,0
19.06.2018 20:00:00 21,7 16,9 21,8 18,2 7 4 14 8 NNW 1024,1 43 50 0,0
19.06.2018 19:00:00 21,7 17,1 22,0 18,0 8 4 14 7 W 1024,6 20 35 0,0
19.06.2018 18:00:00 21,2 16,8 21,6 17,9 7 4 19 10 W 1025,2 20 39 0,0
19.06.2018 17:00:00 20,9 17,1 21,7 17,7 10 5 20 11 W 1025,7 31 3 0,0
19.06.2018 16:00:00 21,0 17,0 21,6 17,6 9 5 16 8 WSW 1025,9 20 22 0,0
19.06.2018 15:00:00 19,5 16,0 21,4 17,5 9 5 14 8 SW 1026,3 46 0 0,0
19.06.2018 14:00:00 20,1 15,5 21,1 17,4 5 3 11 6 SSE 1026,6 59 0 0,0
19.06.2018 13:00:00 19,2 15,3 20,2 17,4 2 1 11 6 E 1026,8 59 0 0,0
19.06.2018 12:00:00 18,3 15,5 19,0 17,3 3 2 14 7 NNE 1026,9 60 0 0,0
19.06.2018 11:00:00 17,1 15,1 17,6 17,4 6 3 14 8 NE 1027,1 50 0 0,0
19.06.2018 10:00:00 16,6 15,5 16,5 17,4 7 4 13 7 ENE 1027,4 54 0 0,0
19.06.2018 09:00:00 15,8 15,3 15,4 17,4 7 4 12 6 E 1027,2 18 0 0,0
19.06.2018 08:00:00 15,2 14,9 14,9 17,4 7 4 15 8 N 1027,2 11 0 0,0
19.06.2018 07:00:00 15,2 14,9 14,9 17,5 7 4 21 11 NNW 1026,8 8 0 0,0
19.06.2018 06:00:00 15,2 14,9 15,0 17,5 10 6 20 11 NNW 1026,7 14 0 0,0
19.06.2018 05:00:00 15,3 15,0 14,9 17,5 8 5 19 11 NNW 1026,4 8 0 0,0
19.06.2018 04:00:00 15,1 14,8 14,8 17,6 10 5 14 8 NW 1026,6 2,0 0 0,0
19.06.2018 03:00:00 15,1 14,8 14,9 17,6 5 3 13 7 WNW 1026,7 9 0 0,0
19.06.2018 02:00:00 15,2 14,9 15,1 17,6 10 5 14 8 WNW 1027,0 3,9 0 0,2
19.06.2018 01:00:00 15,4 15,1 15,2 17,7 8 4 14 8 W 1027,2 2,6 0 0,0
19.06.2018 00:00:00 15,5 15,0 15,2 17,6 9 5 14 8 W 1027,5 1,8 0 0,0
18.06.2018 23:00:00 15,5 15,0 15,3 17,6 7 4 14 8 W 1027,4 3,0 0 0,0
18.06.2018 22:00:00 15,7 14,7 15,3 17,5 9 5 16 9 W 1027,0 1,6 0 0,0
18.06.2018 21:00:00 16,0 14,7 16,1 17,5 11 6 21 11 WSW 1026,8 18 0 0,0
18.06.2018 20:00:00 16,5 14,3 16,7 17,4 14 8 24 13 W 1026,8 20 0 0,0
18.06.2018 19:00:00 17,3 14,2 18,3 17,3 15 8 22 12 WSW 1026,4 53 0 0,0
18.06.2018 18:00:00 17,7 14,4 18,4 17,1 17 9 25 13 W 1026,4 46 1 0,0
18.06.2018 17:00:00 17,4 14,7 18,4 17,0 18 10 26 14 W 1026,5 39 5 0,0
18.06.2018 16:00:00 19,0 15,7 20,7 16,9 18 10 26 14 WSW 1026,3 36 8 0,0
18.06.2018 15:00:00 19,2 15,1 20,1 16,9 10 5 22 12 WNW 1026,1 54 3 0,0
18.06.2018 14:00:00 17,7 14,4 19,3 16,8 16 9 26 14 NW 1026,0 53 1 0,0
18.06.2018 13:00:00 17,2 14,1 17,9 16,8 11 6 28 15 NNW 1026,1 37 0 0,0
18.06.2018 12:00:00 16,1 13,0 16,0 16,8 17 9 29 16 NW 1025,9 48 0 0,0
18.06.2018 11:00:00 15,3 12,8 15,6 16,8 20 11 37 20 NW 1025,7 19 0 0,0

tt = temperature
td = dewpoint
tt 5cm = temperature 5cm
tt -20cm = temperature -20cm
ff = wind speed
fx = gusts
dd = wind direction
ppp = reduced air pressure
vv = visibility
sd = sunshine duration
rr = precipitation

Next stations